Time,TemperatureF,DewpointF,PressureIn,WindDirection,WindDirectionDegrees,WindSpeedMPH,WindSpeedGustMPH,Humidity,HourlyPrecipIn,Conditions,Clouds,dailyrainin,SolarRadiationWatts/m^2,SoftwareType,DateUTC
2013-04-11 00:10:00,40.0,38.7,29.99,North,11,0.0,0.0,95,0.00,,,0.00,0,Wunderground v.1.15,2013-04-11 04:10:00,
2013-04-11 00:20:00,40.0,38.7,29.99,North,11,0.0,0.0,95,0.00,,,0.00,0,Wunderground v.1.15,2013-04-11 04:20:00,
2013-04-11 00:30:00,40.0,38.7,29.99,North,11,0.0,0.0,95,0.00,,,0.00,0,Wunderground v.1.15,2013-04-11 04:30:00,
2013-04-11 00:40:00,40.0,38.7,29.98,North,11,0.0,0.0,95,0.00,,,0.00,0,Wunderground v.1.15,2013-04-11 04:40:00,
2013-04-11 00:50:00,40.0,38.7,29.98,North,11,0.0,0.0,95,0.00,,,0.00,0,Wunderground v.1.15,2013-04-11 04:50:00,
2013-04-11 01:00:00,39.9,38.6,29.98,North,11,0.0,0.0,95,0.00,,,0.00,0,Wunderground v.1.15,2013-04-11 05:00:00,
2013-04-11 01:10:00,39.9,38.6,29.99,NW,323,0.0,2.0,95,0.00,,,0.00,0,Wunderground v.1.15,2013-04-11 05:10:00,
2013-04-11 01:20:00,39.9,38.6,30.01,WNW,291,1.0,1.0,95,0.00,,,0.00,0,Wunderground v.1.15,2013-04-11 05:20:00,
2013-04-11 01:30:00,39.9,38.6,29.99,WNW,284,0.0,0.0,95,0.00,,,0.00,0,Wunderground v.1.15,2013-04-11 05:30:00,
2013-04-11 01:40:00,39.8,38.5,29.98,NE,42,1.0,1.0,95,0.00,,,0.00,0,Wunderground v.1.15,2013-04-11 05:40:00,
2013-04-11 01:50:00,39.7,38.1,29.99,NNW,327,0.0,2.0,94,0.00,,,0.00,0,Wunderground v.1.15,2013-04-11 05:50:00,
2013-04-11 02:00:00,39.5,37.9,29.96,NE,55,1.0,3.0,94,0.00,,,0.00,0,Wunderground v.1.15,2013-04-11 06:00:00,
2013-04-11 02:10:00,39.1,37.2,29.96,NNE,13,3.0,3.0,93,0.00,,,0.00,0,Wunderground v.1.15,2013-04-11 06:10:00,
2013-04-11 02:20:00,39.0,37.1,29.99,WNW,294,1.0,1.0,93,0.00,,,0.00,0,Wunderground v.1.15,2013-04-11 06:20:00,
2013-04-11 02:30:00,39.0,37.4,29.98,NNW,327,0.0,0.0,94,0.00,,,0.00,0,Wunderground v.1.15,2013-04-11 06:30:00,
2013-04-11 02:40:00,39.0,37.4,29.99,NW,323,0.0,0.0,94,0.00,,,0.00,0,Wunderground v.1.15,2013-04-11 06:40:00,
2013-04-11 02:50:00,39.1,37.5,29.99,North,350,1.0,1.0,94,0.00,,,0.00,0,Wunderground v.1.15,2013-04-11 06:50:00,
2013-04-11 03:00:00,39.1,37.5,29.99,NNW,331,1.0,1.0,94,0.00,,,0.00,0,Wunderground v.1.15,2013-04-11 07:00:00,
2013-04-11 03:10:00,39.1,37.2,30.00,North,5,1.0,1.0,93,0.00,,,0.00,0,Wunderground v.1.15,2013-04-11 07:10:00,
2013-04-11 03:20:00,39.2,37.1,30.02,NE,36,2.0,3.0,92,0.00,,,0.00,0,Wunderground v.1.15,2013-04-11 07:20:00,
2013-04-11 03:30:00,39.3,36.3,30.02,NNE,27,4.0,4.0,89,0.00,,,0.00,0,Wunderground v.1.15,2013-04-11 07:30:00,
2013-04-11 03:40:00,39.4,36.1,30.02,NNW,339,5.0,6.0,88,0.00,,,0.00,0,Wunderground v.1.15,2013-04-11 07:40:00,
2013-04-11 03:50:00,39.3,35.8,30.02,North,360,5.0,5.0,87,0.00,,,0.00,0,Wunderground v.1.15,2013-04-11 07:50:00,
2013-04-11 04:00:00,39.2,34.8,30.03,NE,46,8.0,8.0,84,0.00,,,0.00,0,Wunderground v.1.15,2013-04-11 08:00:00,
2013-04-11 04:10:00,39.2,34.2,30.04,NNE,32,7.0,7.0,82,0.00,,,0.00,0,Wunderground v.1.15,2013-04-11 08:10:00,
2013-04-11 04:20:00,39.0,33.7,30.04,ENE,62,8.0,13.0,81,0.00,,,0.00,0,Wunderground v.1.15,2013-04-11 08:20:00,
2013-04-11 04:30:00,38.8,33.5,30.04,NE,44,9.0,9.0,81,0.00,,,0.00,0,Wunderground v.1.15,2013-04-11 08:30:00,
2013-04-11 04:40:00,38.5,32.9,30.04,ENE,57,9.0,12.0,80,0.00,,,0.00,0,Wunderground v.1.15,2013-04-11 08:40:00,
2013-04-11 04:50:00,38.3,32.0,30.05,ENE,60,9.0,9.0,78,0.00,,,0.00,0,Wunderground v.1.15,2013-04-11 08:50:00,
2013-04-11 05:00:00,38.1,32.5,30.04,NE,44,8.0,8.0,80,0.00,,,0.00,0,Wunderground v.1.15,2013-04-11 09:00:00,
2013-04-11 05:10:00,38.0,32.4,30.04,NE,46,8.0,8.0,80,0.00,,,0.00,0,Wunderground v.1.15,2013-04-11 09:10:00,
2013-04-11 05:20:00,37.6,32.0,30.04,ENE,64,9.0,9.0,80,0.00,,,0.00,0,Wunderground v.1.15,2013-04-11 09:20:00,
2013-04-11 05:30:00,37.4,31.2,30.03,NE,47,9.0,11.0,78,0.00,,,0.00,0,Wunderground v.1.15,2013-04-11 09:30:00,
2013-04-11 05:40:00,37.3,30.1,30.03,NE,46,11.0,11.0,75,0.00,,,0.00,0,Wunderground v.1.15,2013-04-11 09:40:00,
2013-04-11 05:50:00,37.1,29.9,30.04,NE,42,10.0,11.0,75,0.00,,,0.00,0,Wunderground v.1.15,2013-04-11 09:50:00,
2013-04-11 06:00:00,37.1,29.9,30.04,ENE,70,9.0,10.0,75,0.00,,,0.00,0,Wunderground v.1.15,2013-04-11 10:00:00,
2013-04-11 06:10:00,37.0,28.8,30.03,NE,55,11.0,11.0,72,0.00,,,0.00,0,Wunderground v.1.15,2013-04-11 10:10:00,
2013-04-11 06:20:00,37.0,28.8,30.03,ENE,61,12.0,12.0,72,0.00,,,0.00,0,Wunderground v.1.15,2013-04-11 10:20:00,
2013-04-11 06:30:00,37.0,29.1,30.03,ENE,61,10.0,10.0,73,0.00,,,0.00,0,Wunderground v.1.15,2013-04-11 10:30:00,
2013-04-11 06:40:00,36.9,29.4,30.03,NE,49,10.0,10.0,74,0.00,,,0.00,0,Wunderground v.1.15,2013-04-11 10:40:00,
2013-04-11 06:50:00,36.8,29.0,30.03,NE,54,10.0,10.0,73,0.00,,,0.00,0,Wunderground v.1.15,2013-04-11 10:50:00,
2013-04-11 07:00:00,36.8,29.3,30.04,NE,38,10.0,10.0,74,0.00,,,0.00,5,Wunderground v.1.15,2013-04-11 11:00:00,
2013-04-11 07:10:00,36.8,29.3,30.03,NE,38,12.0,12.0,74,0.00,,,0.00,16,Wunderground v.1.15,2013-04-11 11:10:00,
2013-04-11 07:20:00,36.8,29.0,30.05,NE,52,11.0,14.0,73,0.00,,,0.00,21,Wunderground v.1.15,2013-04-11 11:20:00,
2013-04-11 07:30:00,36.8,29.3,30.06,NE,40,8.0,8.0,74,0.00,,,0.00,12,Wunderground v.1.15,2013-04-11 11:30:00,
2013-04-11 07:40:00,36.7,27.8,30.06,ENE,63,12.0,17.0,70,0.00,,,0.00,23,Wunderground v.1.15,2013-04-11 11:40:00,
2013-04-11 07:50:00,36.5,28.7,30.06,ENE,58,10.0,10.0,73,0.00,,,0.00,25,Wunderground v.1.15,2013-04-11 11:50:00,
2013-04-11 08:00:00,36.4,28.6,30.07,NE,43,9.0,12.0,73,0.00,,,0.00,21,Wunderground v.1.15,2013-04-11 12:00:00,
2013-04-11 08:10:00,36.0,28.8,30.05,ENE,63,11.0,11.0,75,0.00,,,0.00,19,Wunderground v.1.15,2013-04-11 12:10:00,
2013-04-11 08:20:00,35.5,29.0,30.05,NNE,32,12.0,12.0,77,0.00,,,0.00,25,Wunderground v.1.15,2013-04-11 12:20:00,
2013-04-11 08:30:00,35.1,29.2,30.05,NNE,33,12.0,12.0,79,0.00,,,0.01,21,Wunderground v.1.15,2013-04-11 12:30:00,
2013-04-11 08:40:00,34.7,29.8,30.06,NE,51,12.0,13.0,82,0.06,,,0.02,42,Wunderground v.1.15,2013-04-11 12:40:00,
2013-04-11 08:50:00,34.5,30.2,30.07,NE,47,9.0,9.0,84,0.09,,,0.03,35,Wunderground v.1.15,2013-04-11 12:50:00,
2013-04-11 09:00:00,34.4,30.4,30.07,NNE,15,9.0,9.0,85,0.04,,,0.03,21,Wunderground v.1.15,2013-04-11 13:00:00,
2013-04-11 09:10:00,34.3,30.5,30.10,North,355,7.0,7.0,86,0.08,,,0.04,32,Wunderground v.1.15,2013-04-11 13:10:00,
2013-04-11 09:20:00,34.1,30.6,30.08,NE,40,8.0,10.0,87,0.13,,,0.07,60,Wunderground v.1.15,2013-04-11 13:20:00,
2013-04-11 09:30:00,33.9,30.7,30.08,NE,54,9.0,10.0,88,0.06,,,0.07,70,Wunderground v.1.15,2013-04-11 13:30:00,
2013-04-11 09:40:00,33.9,30.7,30.10,ENE,73,9.0,9.0,88,0.00,,,0.07,70,Wunderground v.1.15,2013-04-11 13:40:00,
2013-04-11 09:50:00,34.0,31.1,30.09,NE,45,8.0,8.0,89,0.00,,,0.08,67,Wunderground v.1.15,2013-04-11 13:50:00,
2013-04-11 10:00:00,33.9,30.7,30.11,North,5,8.0,8.0,88,0.00,,,0.08,46,Wunderground v.1.15,2013-04-11 14:00:00,
2013-04-11 10:10:00,33.9,31.0,30.14,NE,52,5.0,6.0,89,0.00,,,0.09,83,Wunderground v.1.15,2013-04-11 14:10:00,
2013-04-11 10:20:00,33.9,31.3,30.13,NNE,31,7.0,7.0,90,0.08,,,0.10,67,Wunderground v.1.15,2013-04-11 14:20:00,
2013-04-11 10:30:00,33.8,31.2,30.13,NE,50,7.0,7.0,90,0.04,,,0.10,70,Wunderground v.1.15,2013-04-11 14:30:00,
2013-04-11 10:40:00,33.8,31.5,30.14,NE,55,6.0,6.0,91,0.12,,,0.12,81,Wunderground v.1.15,2013-04-11 14:40:00,
2013-04-11 10:50:00,33.7,31.4,30.13,NE,34,7.0,9.0,91,0.11,,,0.13,93,Wunderground v.1.15,2013-04-11 14:50:00,
2013-04-11 11:00:00,33.7,31.6,30.15,NE,44,7.0,7.0,92,0.08,,,0.14,81,Wunderground v.1.15,2013-04-11 15:00:00,
2013-04-11 11:10:00,33.7,31.6,30.15,NE,51,5.0,5.0,92,0.05,,,0.15,84,Wunderground v.1.15,2013-04-11 15:10:00,
2013-04-11 11:20:00,33.7,31.6,30.15,ENE,61,4.0,8.0,92,0.05,,,0.16,69,Wunderground v.1.15,2013-04-11 15:20:00,
2013-04-11 11:30:00,33.8,31.7,30.15,ENE,57,4.0,4.0,92,0.08,,,0.18,155,Wunderground v.1.15,2013-04-11 15:30:00,
2013-04-11 11:40:00,33.8,31.7,30.14,ENE,61,0.0,0.0,92,0.06,,,0.18,149,Wunderground v.1.15,2013-04-11 15:40:00,
2013-04-11 11:50:00,33.9,31.8,30.13,NE,56,0.0,0.0,92,0.05,,,0.19,257,Wunderground v.1.15,2013-04-11 15:50:00,
2013-04-11 12:00:00,34.8,33.0,30.10,ENE,71,4.0,14.0,93,0.00,,,0.20,431,Wunderground v.1.15,2013-04-11 16:00:00,
2013-04-11 12:10:00,34.9,32.5,30.12,NE,55,14.0,14.0,91,0.00,,,0.20,206,Wunderground v.1.15,2013-04-11 16:10:00,
2013-04-11 12:20:00,34.2,31.3,30.12,East,93,13.0,13.0,89,0.00,,,0.20,153,Wunderground v.1.15,2013-04-11 16:20:00,
2013-04-11 12:30:00,34.4,32.0,30.11,ENE,69,12.0,12.0,91,0.00,,,0.20,141,Wunderground v.1.15,2013-04-11 16:30:00,
2013-04-11 12:40:00,34.6,32.2,30.12,ENE,59,8.0,8.0,91,0.00,,,0.20,118,Wunderground v.1.15,2013-04-11 16:40:00,
2013-04-11 12:50:00,34.4,32.0,30.13,NE,53,9.0,9.0,91,0.00,,,0.20,83,Wunderground v.1.15,2013-04-11 16:50:00,
2013-04-11 13:00:00,34.3,31.9,30.12,ENE,61,8.0,8.0,91,0.00,,,0.20,98,Wunderground v.1.15,2013-04-11 17:00:00,
2013-04-11 13:10:00,33.9,31.6,30.11,ENE,65,10.0,17.0,91,0.00,,,0.20,114,Wunderground v.1.15,2013-04-11 17:10:00,
2013-04-11 13:20:00,33.6,31.5,30.10,ENE,63,12.0,12.0,92,0.00,,,0.20,105,Wunderground v.1.15,2013-04-11 17:20:00,
2013-04-11 13:30:00,33.5,31.7,30.10,NE,46,13.0,13.0,93,0.00,,,0.21,123,Wunderground v.1.15,2013-04-11 17:30:00,
2013-04-11 13:40:00,33.4,31.6,30.11,ENE,62,12.0,15.0,93,0.00,,,0.21,76,Wunderground v.1.15,2013-04-11 17:40:00,
2013-04-11 13:50:00,33.4,31.6,30.11,ENE,60,11.0,16.0,93,0.00,,,0.21,104,Wunderground v.1.15,2013-04-11 17:50:00,
2013-04-11 14:00:00,33.4,31.6,30.10,ENE,58,11.0,11.0,93,0.00,,,0.21,104,Wunderground v.1.15,2013-04-11 18:00:00,
2013-04-11 14:10:00,33.7,32.2,30.11,ENE,58,9.0,10.0,94,0.00,,,0.21,77,Wunderground v.1.15,2013-04-11 18:10:00,
2013-04-11 14:20:00,33.7,32.2,30.10,ENE,59,9.0,9.0,94,0.00,,,0.21,100,Wunderground v.1.15,2013-04-11 18:20:00,
2013-04-11 14:30:00,33.8,32.3,30.10,ENE,57,10.0,10.0,94,0.00,,,0.21,102,Wunderground v.1.15,2013-04-11 18:30:00,
2013-04-11 14:40:00,33.9,32.4,30.09,ENE,70,9.0,11.0,94,0.00,,,0.22,135,Wunderground v.1.15,2013-04-11 18:40:00,
2013-04-11 14:50:00,33.9,32.4,30.09,ENE,78,10.0,10.0,94,0.00,,,0.22,81,Wunderground v.1.15,2013-04-11 18:50:00,
2013-04-11 15:00:00,34.0,32.7,30.09,ENE,57,8.0,8.0,95,0.00,,,0.23,76,Wunderground v.1.15,2013-04-11 19:00:00,
2013-04-11 15:10:00,33.8,32.5,30.09,ENE,59,8.0,10.0,95,0.00,,,0.23,77,Wunderground v.1.15,2013-04-11 19:10:00,
2013-04-11 15:20:00,33.8,32.5,30.08,ENE,78,9.0,9.0,95,0.00,,,0.23,86,Wunderground v.1.15,2013-04-11 19:20:00,
2013-04-11 15:30:00,34.0,32.7,30.10,East,88,7.0,8.0,95,0.00,,,0.23,69,Wunderground v.1.15,2013-04-11 19:30:00,
2013-04-11 15:40:00,34.0,32.5,30.10,ENE,62,8.0,8.0,94,0.00,,,0.23,67,Wunderground v.1.15,2013-04-11 19:40:00,
2013-04-11 15:50:00,34.2,32.9,30.10,NE,38,6.0,9.0,95,0.00,,,0.23,54,Wunderground v.1.15,2013-04-11 19:50:00,
2013-04-11 16:00:00,34.0,32.7,30.09,NE,52,8.0,8.0,95,0.00,,,0.23,65,Wunderground v.1.15,2013-04-11 20:00:00,
2013-04-11 16:10:00,33.8,32.5,30.10,NE,35,9.0,9.0,95,0.00,,,0.23,40,Wunderground v.1.15,2013-04-11 20:10:00,
2013-04-11 16:20:00,33.6,32.3,30.10,NE,40,9.0,10.0,95,0.00,,,0.23,42,Wunderground v.1.15,2013-04-11 20:20:00,
2013-04-11 16:30:00,33.5,32.2,30.10,East,79,8.0,8.0,95,0.00,,,0.23,37,Wunderground v.1.15,2013-04-11 20:30:00,
2013-04-11 16:40:00,33.4,32.1,30.09,NE,56,8.0,8.0,95,0.00,,,0.23,32,Wunderground v.1.15,2013-04-11 20:40:00,
2013-04-11 16:50:00,33.3,32.0,30.08,East,86,8.0,10.0,95,0.00,,,0.23,49,Wunderground v.1.15,2013-04-11 20:50:00,
2013-04-11 17:00:00,33.3,32.0,30.08,ENE,61,8.0,11.0,95,0.00,,,0.23,42,Wunderground v.1.15,2013-04-11 21:00:00,
2013-04-11 17:10:00,33.3,32.0,30.08,NE,45,9.0,9.0,95,0.00,,,0.24,53,Wunderground v.1.15,2013-04-11 21:10:00,
2013-04-11 17:20:00,33.4,32.1,30.08,NE,44,8.0,8.0,95,0.00,,,0.24,51,Wunderground v.1.15,2013-04-11 21:20:00,
2013-04-11 17:30:00,33.2,31.9,30.09,NE,52,8.0,8.0,95,0.00,,,0.24,46,Wunderground v.1.15,2013-04-11 21:30:00,
2013-04-11 17:40:00,33.2,31.9,30.08,NE,49,8.0,8.0,95,0.00,,,0.24,54,Wunderground v.1.15,2013-04-11 21:40:00,
2013-04-11 17:50:00,33.2,31.9,30.07,ENE,59,8.0,10.0,95,0.00,,,0.24,58,Wunderground v.1.15,2013-04-11 21:50:00,
2013-04-11 18:00:00,33.2,31.9,30.08,NE,54,9.0,9.0,95,0.00,,,0.24,30,Wunderground v.1.15,2013-04-11 22:00:00,
2013-04-11 18:10:00,33.1,31.8,30.08,NE,42,8.0,8.0,95,0.00,,,0.24,21,Wunderground v.1.15,2013-04-11 22:10:00,
2013-04-11 18:20:00,33.1,31.8,30.08,ENE,63,8.0,12.0,95,0.00,,,0.24,26,Wunderground v.1.15,2013-04-11 22:20:00,
2013-04-11 18:30:00,33.3,32.0,30.08,NE,47,7.0,11.0,95,0.00,,,0.24,21,Wunderground v.1.15,2013-04-11 22:30:00,
2013-04-11 18:40:00,33.5,32.2,30.07,ENE,71,9.0,11.0,95,0.00,,,0.24,30,Wunderground v.1.15,2013-04-11 22:40:00,
2013-04-11 18:50:00,33.6,32.3,30.05,ENE,61,8.0,9.0,95,0.00,,,0.24,26,Wunderground v.1.15,2013-04-11 22:50:00,
2013-04-11 19:00:00,33.7,32.4,30.05,ENE,78,9.0,9.0,95,0.00,,,0.24,21,Wunderground v.1.15,2013-04-11 23:00:00,
2013-04-11 19:10:00,33.8,32.5,30.04,ENE,65,8.0,8.0,95,0.00,,,0.25,14,Wunderground v.1.15,2013-04-11 23:10:00,
2013-04-11 19:20:00,33.8,32.5,30.05,ENE,63,8.0,9.0,95,0.00,,,0.25,9,Wunderground v.1.15,2013-04-11 23:20:00,
2013-04-11 19:30:00,33.9,32.4,30.05,ENE,74,9.0,9.0,94,0.00,,,0.25,7,Wunderground v.1.15,2013-04-11 23:30:00,
2013-04-11 19:40:00,34.0,32.5,30.04,ENE,66,9.0,12.0,94,0.00,,,0.25,0,Wunderground v.1.15,2013-04-11 23:40:00,
2013-04-11 19:50:00,34.0,32.5,30.05,ENE,69,8.0,9.0,94,0.00,,,0.25,0,Wunderground v.1.15,2013-04-11 23:50:00,
2013-04-11 20:00:00,34.2,32.4,30.06,ENE,76,8.0,8.0,93,0.00,,,0.25,0,Wunderground v.1.15,2013-04-12 00:00:00,
2013-04-11 20:10:00,34.3,32.5,30.06,ENE,71,8.0,8.0,93,0.00,,,0.25,0,Wunderground v.1.15,2013-04-12 00:10:00,
2013-04-11 20:20:00,34.3,32.5,30.06,ENE,65,7.0,7.0,93,0.00,,,0.25,0,Wunderground v.1.15,2013-04-12 00:20:00,
2013-04-11 20:30:00,34.3,32.5,30.05,East,79,8.0,9.0,93,0.00,,,0.25,0,Wunderground v.1.15,2013-04-12 00:30:00,
2013-04-11 20:40:00,34.3,32.5,30.05,ENE,77,7.0,7.0,93,0.00,,,0.25,0,Wunderground v.1.15,2013-04-12 00:40:00,
2013-04-11 20:50:00,34.3,32.5,30.06,ENE,69,6.0,8.0,93,0.00,,,0.25,0,Wunderground v.1.15,2013-04-12 00:50:00,
2013-04-11 21:00:00,34.5,32.7,30.05,ENE,71,7.0,7.0,93,0.00,,,0.25,0,Wunderground v.1.15,2013-04-12 01:00:00,
2013-04-11 21:10:00,34.6,32.8,30.05,ENE,75,9.0,9.0,93,0.00,,,0.25,0,Wunderground v.1.15,2013-04-12 01:10:00,
2013-04-11 21:20:00,34.6,32.5,30.05,ENE,74,8.0,8.0,92,0.00,,,0.25,0,Wunderground v.1.15,2013-04-12 01:20:00,
2013-04-11 21:30:00,34.7,32.6,30.04,ENE,72,8.0,8.0,92,0.00,,,0.25,0,Wunderground v.1.15,2013-04-12 01:30:00,
2013-04-11 21:40:00,34.7,32.6,30.05,ENE,71,7.0,9.0,92,0.00,,,0.25,0,Wunderground v.1.15,2013-04-12 01:40:00,
2013-04-11 21:50:00,34.8,32.4,30.05,East,80,7.0,8.0,91,0.00,,,0.25,0,Wunderground v.1.15,2013-04-12 01:50:00,
2013-04-11 22:00:00,34.8,32.4,30.04,NE,49,6.0,9.0,91,0.00,,,0.25,0,Wunderground v.1.15,2013-04-12 02:00:00,
2013-04-11 22:10:00,34.9,32.5,30.03,East,88,8.0,8.0,91,0.00,,,0.25,0,Wunderground v.1.15,2013-04-12 02:10:00,
2013-04-11 22:20:00,35.0,32.6,30.04,ENE,62,9.0,9.0,91,0.00,,,0.25,0,Wunderground v.1.15,2013-04-12 02:20:00,
2013-04-11 22:30:00,35.1,32.7,30.03,ENE,78,6.0,8.0,91,0.00,,,0.25,0,Wunderground v.1.15,2013-04-12 02:30:00,
2013-04-11 22:40:00,35.2,32.8,30.02,East,82,8.0,8.0,91,0.00,,,0.25,0,Wunderground v.1.15,2013-04-12 02:40:00,
2013-04-11 22:50:00,35.2,32.8,30.01,ENE,66,9.0,9.0,91,0.00,,,0.25,0,Wunderground v.1.15,2013-04-12 02:50:00,
2013-04-11 23:00:00,35.3,32.9,30.01,ENE,74,8.0,10.0,91,0.00,,,0.25,0,Wunderground v.1.15,2013-04-12 03:00:00,
2013-04-11 23:10:00,35.3,33.2,30.00,ENE,70,9.0,9.0,92,0.00,,,0.25,0,Wunderground v.1.15,2013-04-12 03:10:00,
2013-04-11 23:20:00,35.3,32.9,30.00,ENE,78,9.0,9.0,91,0.00,,,0.25,0,Wunderground v.1.15,2013-04-12 03:20:00,
2013-04-11 23:30:00,35.4,33.0,30.00,ENE,63,10.0,10.0,91,0.00,,,0.25,0,Wunderground v.1.15,2013-04-12 03:30:00,
2013-04-11 23:40:00,35.5,33.1,29.99,ENE,77,10.0,10.0,91,0.00,,,0.25,0,Wunderground v.1.15,2013-04-12 03:40:00,
2013-04-11 23:50:00,35.5,33.1,29.98,ENE,70,10.0,10.0,91,0.00,,,0.25,0,Wunderground v.1.15,2013-04-12 03:50:00,